[[{"header":{"parameterUnit":"m.s-1","parameterCategory":2,"la1":30.2991,"la2":30.254,"lo1":-89.0895,"lo2":-89.0444,"dy":0.0017,"dx":0.0017,"nx":28,"ny":28,"refTime":"2025-09-04T03:00:00:Z","depth":"0","parameterNumber":2,"parameterNumberName":"U-component_of_CURRENTS"},"data":[0,0,0,0,0,0,0,0,0,0,0,0,0,0,0,0,0,0,0,0,0,0,0,0,0,0,0,0,0,0,0,0,0,0,0,0,0,0,0,0,0,0,0,0,0,0,0,0,0,0,0,0,0,0,0,0,0,0,0.2571,0.2571,0,0.2607,0.2607,0.2607,0.2605,0.2605,0.2604,0.2604,0.26,0.26,0.26,0,0,0,0,0,0,0,0,0,0,0,0,0,0.2552,0.2552,0.2571,0.2571,0.2572,0.2607,0.2607,0.2607,0.2605,0.2605,0.2604,0.2604,0.26,0.26,0.26,0,0,0,0,0,0,0,0,0,0,0,0,0,0.2568,0.2552,0.257,0.2577,0.2579,0.2607,0.2607,0.2607,0.2605,0.2605,0.2604,0.2604,0.26,0.26,0.26,0.2609,0,0,0.2601,0.2601,0,0,0,0,0,0,0,0,0.2567,0.2568,0.2576,0.2577,0.2578,0.2604,0.2599,0.2607,0.2605,0.2592,0.2604,0.2604,0.26,0.26,0.2604,0.2609,0.2608,0.2601,0.2601,0.2601,0.2601,0,0,0,0,0,0,0,0.2566,0.2567,0.2582,0.2577,0.2578,0.2597,0.2598,0.2601,0.2594,0.2593,0.2593,0.2603,0.26,0.2604,0.2604,0.2608,0.2601,0.2601,0.2601,0.2601,0.2704,0.2706,0,0,0,0,0,0,0.2566,0.2566,0.2581,0.2583,0.2575,0.2598,0.2599,0.2593,0.2595,0.2596,0.2603,0.2602,0.2603,0.2603,0.2603,0.2674,0.2601,0.2601,0.2601,0.2701,0.2704,0.2707,0,0,0,0,0,0,0.2565,0.2566,0.2579,0.2579,0.2582,0.2598,0.2593,0.2594,0.2604,0.2604,0.2603,0.2611,0.2603,0.2603,0.2636,0.2671,0.2601,0.2601,0.2698,0.2702,0.2706,0.2776,0,0,0,0,0,0,0.2564,0.2565,0.2561,0.2578,0.2582,0.2607,0.2593,0.2595,0.2611,0.2611,0.2611,0.261,0.2603,0.2636,0.2636,0.267,0.2602,0.2695,0.27,0.2705,0.2771,0.2782,0.2792,0,0,0,0,0,0.2563,0.2565,0.256,0.2563,0.2576,0.2608,0.2612,0.2621,0.2612,0.2625,0.2639,0.261,0.2668,0.2639,0.2638,0.2673,0.2692,0.2699,0.2704,0.2766,0.278,0.2792,0,0,0,0,0,0,0.2549,0.2566,0.2561,0.2565,0.2588,0.2609,0.2624,0.2626,0.2645,0.2645,0.2637,0.2639,0.2689,0.2674,0.2642,0.2721,0.2678,0.2684,0.2725,0.2738,0.2748,0.275,0.2602,0,0,0,0,0,0.2545,0.2554,0.2573,0.2578,0.2591,0.2606,0.2619,0.2627,0.2647,0.2654,0.2657,0.2674,0.2713,0.2718,0.2743,0.2771,0.2763,0.2798,0.2809,0.2818,0.2822,0.2857,0.287,0.2727,0.2727,0.2726,0,0,0.2542,0.2553,0.2556,0.2577,0.2593,0.2622,0.2613,0.264,0.267,0.2651,0.269,0.2712,0.2734,0.2785,0.2804,0.2772,0.2855,0.2825,0.2832,0.2832,0.2864,0.2878,0.289,0.2731,0.273,0.2729,0,0,0.2548,0.255,0.2561,0.2585,0.2617,0.2638,0.2648,0.2674,0.2693,0.2736,0.2748,0.2794,0.2822,0.2857,0.2877,0.2959,0.2921,0.2965,0.3004,0.3038,0.3049,0.3059,0.3062,0.3071,0.2957,0.2957,0.2957,0,0.2535,0.2554,0.2572,0.2595,0.2621,0.2647,0.2673,0.2707,0.2741,0.2766,0.2759,0.2849,0.2864,0.2943,0.2982,0.2982,0.2981,0.2949,0.3049,0.3059,0.3068,0.3068,0.3078,0.2961,0.2961,0.296,0.296,0,0.2555,0.2573,0.2589,0.2626,0.2658,0.269,0.2738,0.2774,0.2801,0.2829,0.2909,0.2945,0.2992,0.3017,0.3027,0.3108,0.308,0.3067,0.3009,0.3086,0.3082,0.3091,0.2967,0.2966,0.2964,0.2963,0,0,0.2508,0.2584,0.2586,0.2616,0.2677,0.2707,0.2774,0.284,0.2887,0.2932,0.2991,0.3079,0.3088,0.3115,0.3133,0.3167,0.3237,0.3145,0.3145,0.3134,0.3291,0.3095,0.3084,0.3237,0.3239,0.3241,0.3259,0,0.2512,0.2563,0.2602,0.2663,0.2699,0.2754,0.2817,0.2882,0.2939,0.3004,0.3061,0.3128,0.3129,0.316,0.32,0.3237,0.3264,0.3232,0.3229,0.3229,0.3034,0.309,0.2921,0.2908,0.3267,0.3269,0.327,0,0.2513,0.2552,0.2605,0.2695,0.2715,0.2756,0.2859,0.292,0.3023,0.3066,0.3134,0.3174,0.3256,0.3238,0.3318,0.3294,0.3302,0.3316,0.3317,0.3113,0.3049,0.2892,0.2909,0.2835,0.3283,0.3282,0.3281,0,0.2484,0.2557,0.2602,0.2629,0.273,0.2768,0.2828,0.2931,0.2983,0.3103,0.3139,0.3237,0.3267,0.3323,0.334,0.3343,0.3397,0.3399,0.3228,0.3214,0.3057,0.3023,0.2985,0.3452,0.3452,0.3451,0.3451,0,0.2485,0.2521,0.259,0.2618,0.2679,0.2753,0.2826,0.2908,0.3001,0.3057,0.3158,0.3197,0.3289,0.332,0.3356,0.3292,0.3403,0.3238,0.3208,0.3073,0.3042,0.2956,0.2946,0.3452,0.3452,0.3452,0.3452,0,0.2464,0.2507,0.256,0.2644,0.2669,0.2715,0.2805,0.2859,0.2954,0.3027,0.3062,0.3163,0.3197,0.325,0.3318,0.326,0.3145,0.3212,0.3021,0.2966,0.2692,0.2692,0.2518,0.2456,0.303,0.3026,0.3022,0,0.2468,0.2488,0.2558,0.2574,0.2612,0.2676,0.2721,0.2828,0.2874,0.299,0.3014,0.3066,0.308,0.3072,0.3007,0.2986,0.2969,0.2786,0.2755,0.2642,0.2626,0.2561,0.2522,0.2595,0.2588,0.2582,0.2578,0,0.2462,0.2475,0.2511,0.254,0.2575,0.2617,0.2681,0.2698,0.2815,0.2853,0.2878,0.2897,0.2866,0.273,0.2663,0.2645,0.261,0.2657,0.2622,0.2332,0.2184,0.2121,0.2612,0.2526,0.2531,0.2535,0.2537,0.254,0.244,0.2447,0.2469,0.249,0.2519,0.2524,0.2509,0.2562,0.258,0.2578,0.2673,0.2607,0.2522,0.2384,0.2341,0.2114,0.2206,0.2033,0.2062,0.2022,0.1885,0.2217,0.2033,0.2035,0.2037,0.2039,0.204,0,0.2388,0.2393,0.2414,0.2411,0.2384,0.2434,0.2448,0.2393,0.2339,0.2357,0.2325,0.2166,0.2007,0.1943,0.1711,0.1568,0.1548,0.1518,0.1458,0.1471,0.1837,0.1739,0.1381,0.1381,0.1381,0.1381,0.1381,0.1382,0.2362,0.2333,0.2331,0.2253,0.2243,0.2154,0.2121,0.2062,0.2033,0.1876,0.1755,0.173,0.1686,0.1471,0.1268,0.1232,0.1181,0.1023,0.1119,0.1443,0.1496,0.1547,0.1453,0.1042,0.1042,0.0674,0.0671,0.0669]},{"header":{"parameterUnit":"m.s-1","parameterCategory":2,"la1":30.2991,"la2":30.254,"lo1":-89.0895,"lo2":-89.0444,"dy":0.0017,"dx":0.0017,"nx":28,"ny":28,"refTime":"2025-09-04T03:00:00:Z","depth":"0","parameterNumber":3,"parameterNumberName":"V-component_of_CURRENTS"},"data":[0,0,0,0,0,0,0,0,0,0,0,0,0,0,0,0,0,0,0,0,0,0,0,0,0,0,0,0,0,0,0,0,0,0,0,0,0,0,0,0,0,0,0,0,0,0,0,0,0,0,0,0,0,0,0,0,0,0,0.0233,0.0233,0,0.0234,0.0234,0.0234,0.0229,0.0229,0.0229,0.0229,0.0203,0.0203,0.0202,0,0,0,0,0,0,0,0,0,0,0,0,0,0.0213,0.0213,0.0233,0.0233,0.0233,0.0234,0.0234,0.0234,0.0229,0.0229,0.0229,0.0229,0.0203,0.0203,0.0202,0,0,0,0,0,0,0,0,0,0,0,0,0,0.0218,0.0213,0.0233,0.0231,0.0231,0.0235,0.0234,0.0234,0.0229,0.0229,0.0229,0.0229,0.0204,0.0203,0.0202,0.0198,0,0,0.0199,0.0199,0,0,0,0,0,0,0,0,0.0217,0.0218,0.0231,0.0231,0.0231,0.0232,0.0218,0.0221,0.023,0.0229,0.0229,0.0229,0.0211,0.021,0.0209,0.0197,0.0196,0.0199,0.0198,0.0198,0.0198,0,0,0,0,0,0,0,0.0217,0.0218,0.0232,0.0232,0.0231,0.0226,0.0227,0.0218,0.022,0.0229,0.0229,0.0231,0.0211,0.021,0.0209,0.0196,0.0199,0.0198,0.0198,0.0197,0.0183,0.0184,0,0,0,0,0,0,0.022,0.0218,0.0232,0.0233,0.0225,0.0227,0.0228,0.0231,0.022,0.0219,0.0231,0.0231,0.0212,0.021,0.0208,0.0219,0.0198,0.0197,0.0197,0.0183,0.0184,0.0184,0,0,0,0,0,0,0.0219,0.0221,0.0232,0.0226,0.0227,0.0228,0.0232,0.0232,0.0234,0.0222,0.022,0.0234,0.0212,0.0209,0.0202,0.0217,0.0197,0.0196,0.0183,0.0183,0.0184,0.0231,0,0,0,0,0,0,0.0219,0.0221,0.0224,0.0226,0.0228,0.0241,0.0232,0.0232,0.0235,0.0235,0.0224,0.0221,0.0211,0.0204,0.0202,0.0215,0.0195,0.0183,0.0183,0.0184,0.0229,0.0233,0.0236,0,0,0,0,0,0.0218,0.023,0.0224,0.0226,0.0232,0.0242,0.0242,0.0241,0.0236,0.0242,0.023,0.0222,0.0205,0.0203,0.02,0.0215,0.0183,0.0183,0.0184,0.0228,0.0232,0.0236,0,0,0,0,0,0,0.0225,0.0231,0.0224,0.0238,0.024,0.0242,0.0249,0.0244,0.024,0.0238,0.0223,0.022,0.0222,0.0207,0.0206,0.021,0.0193,0.0193,0.0227,0.0231,0.0234,0.0262,0.0194,0,0,0,0,0,0.0227,0.0236,0.0238,0.0247,0.0251,0.0248,0.0251,0.0249,0.0246,0.0245,0.0236,0.0225,0.0221,0.0217,0.021,0.021,0.0209,0.0216,0.022,0.0223,0.0242,0.0256,0.0263,0.0185,0.0185,0.0185,0,0,0.0231,0.0236,0.024,0.0249,0.025,0.0264,0.025,0.0258,0.0269,0.0242,0.0251,0.0237,0.0223,0.0227,0.0226,0.0217,0.0239,0.0223,0.0226,0.0244,0.0258,0.0266,0.0273,0.0186,0.0185,0.0185,0,0,0.0252,0.025,0.0266,0.0271,0.0277,0.0277,0.0281,0.0282,0.0283,0.0287,0.0271,0.0271,0.0258,0.0258,0.0255,0.0272,0.0258,0.026,0.0301,0.0314,0.0321,0.0327,0.0318,0.0324,0.0261,0.0261,0.0261,0,0.0256,0.0279,0.0272,0.029,0.0301,0.0286,0.0308,0.0307,0.0305,0.0313,0.0296,0.03,0.028,0.0302,0.0302,0.0284,0.0278,0.0288,0.0321,0.0327,0.0333,0.0322,0.0327,0.0263,0.0263,0.0263,0.0263,0,0.0293,0.0307,0.0319,0.0337,0.0345,0.0361,0.036,0.0366,0.0362,0.0363,0.038,0.0361,0.0368,0.0354,0.0332,0.0361,0.0339,0.0325,0.0315,0.0344,0.033,0.0335,0.0267,0.0266,0.0265,0.0264,0,0,0.0315,0.0341,0.0344,0.0363,0.0372,0.0388,0.0404,0.0424,0.0449,0.0439,0.048,0.046,0.0453,0.0449,0.0424,0.0428,0.0446,0.0393,0.0392,0.0394,0.046,0.0434,0.0436,0.0438,0.0439,0.044,0.0428,0,0.0347,0.0393,0.0395,0.0437,0.0462,0.0456,0.0481,0.0492,0.0496,0.0527,0.0517,0.054,0.0488,0.0497,0.0494,0.0464,0.0463,0.045,0.0425,0.0424,0.0406,0.0443,0.0463,0.0454,0.0433,0.0434,0.0434,0,0.0388,0.0413,0.0459,0.05,0.0511,0.0531,0.0574,0.0595,0.0622,0.0628,0.0645,0.0634,0.0642,0.0598,0.0574,0.0565,0.0521,0.0491,0.049,0.0459,0.0408,0.0425,0.0463,0.0437,0.0441,0.0441,0.044,0,0.042,0.0462,0.0502,0.0514,0.0553,0.0575,0.0601,0.0628,0.0662,0.0699,0.0733,0.0729,0.0742,0.0701,0.0625,0.0604,0.0597,0.056,0.0495,0.0491,0.0504,0.0499,0.0528,0.0556,0.0556,0.0556,0.0556,0,0.0462,0.0495,0.0521,0.0545,0.0606,0.0617,0.0681,0.0705,0.0752,0.0815,0.0793,0.084,0.077,0.0749,0.067,0.0601,0.0631,0.052,0.05,0.0516,0.0513,0.0484,0.0447,0.0555,0.0555,0.0555,0.0555,0,0.0497,0.0511,0.0563,0.0606,0.0623,0.0671,0.0737,0.0787,0.0819,0.0906,0.0927,0.0929,0.0905,0.0822,0.0754,0.0662,0.0575,0.056,0.0571,0.0553,0.0457,0.0421,0.0418,0.0403,0.0494,0.0493,0.0493,0,0.0521,0.0548,0.0607,0.0644,0.0666,0.0728,0.0779,0.0823,0.088,0.0966,0.102,0.1018,0.1039,0.0918,0.0768,0.0641,0.0581,0.0549,0.0516,0.0475,0.042,0.04,0.0387,0.0539,0.0539,0.0539,0.0539,0,0.0567,0.0582,0.0627,0.0697,0.0753,0.0821,0.0894,0.0949,0.1019,0.1093,0.1179,0.1205,0.11,0.0987,0.0794,0.0692,0.0537,0.0542,0.0516,0.048,0.0447,0.0416,0.0503,0.0539,0.0539,0.0539,0.0539,0.0539,0.0598,0.0636,0.0685,0.0757,0.0823,0.0904,0.0965,0.1051,0.1154,0.1267,0.1287,0.134,0.1174,0.0924,0.0792,0.0554,0.0537,0.0479,0.0442,0.043,0.0415,0.0488,0.0488,0.0488,0.0488,0.0488,0.0487,0,0.0631,0.0672,0.074,0.0822,0.0893,0.0921,0.1035,0.1102,0.1227,0.1335,0.1412,0.1362,0.1179,0.0958,0.0642,0.0494,0.0444,0.0411,0.0408,0.0401,0.0491,0.0492,0.0476,0.0476,0.0476,0.0476,0.0476,0.0476,0.0651,0.0708,0.074,0.0854,0.0916,0.1007,0.1069,0.1184,0.1277,0.1388,0.1419,0.1437,0.1281,0.0801,0.0515,0.0443,0.0366,0.0324,0.0282,0.0359,0.0363,0.0368,0.0364,0.0321,0.0321,0.0235,0.0234,0.0233]}],[{"header":{"parameterUnit":"m.s-1","parameterCategory":2,"la1":30.2991,"la2":30.254,"lo1":-89.0895,"lo2":-89.0444,"dy":0.0017,"dx":0.0017,"nx":28,"ny":28,"refTime":"2025-09-04T03:00:00:Z","depth":"2","parameterNumber":2,"parameterNumberName":"U-component_of_CURRENTS"},"data":[0,0,0,0,0,0,0,0,0,0,0,0,0,0,0,0,0,0,0,0,0,0,0,0,0,0,0,0,0,0,0,0,0,0,0,0,0,0,0,0,0,0,0,0,0,0,0,0,0,0,0,0,0,0,0,0,0,0,0.1922,0.1921,0,0.1936,0.1937,0.1937,0.1954,0.1954,0.1954,0.1954,0.1958,0.1959,0.1959,0,0,0,0,0,0,0,0,0,0,0,0,0,0.1928,0.1928,0.1922,0.1921,0.1921,0.1936,0.1937,0.1938,0.1954,0.1954,0.1954,0.1954,0.1958,0.1959,0.1959,0,0,0,0,0,0,0,0,0,0,0,0,0,0.1936,0.1928,0.1922,0.1929,0.1929,0.1936,0.1937,0.1938,0.1954,0.1954,0.1954,0.1954,0.1958,0.1959,0.1959,0.1964,0,0,0.196,0.196,0,0,0,0,0,0,0,0,0.1935,0.1936,0.1928,0.1928,0.1929,0.194,0.1941,0.1945,0.1954,0.1949,0.1954,0.1954,0.1949,0.195,0.1959,0.1964,0.1964,0.196,0.196,0.196,0.196,0,0,0,0,0,0,0,0.1935,0.1936,0.1931,0.1928,0.1928,0.1938,0.1939,0.1942,0.1952,0.1949,0.195,0.1945,0.195,0.1959,0.1959,0.1964,0.196,0.196,0.196,0.1961,0.2018,0.2019,0,0,0,0,0,0,0.1924,0.1935,0.1931,0.1932,0.1927,0.1937,0.1939,0.194,0.1953,0.1953,0.1945,0.1946,0.1958,0.1959,0.1959,0.2006,0.196,0.1961,0.1961,0.2016,0.2018,0.2019,0,0,0,0,0,0,0.1925,0.1924,0.193,0.193,0.1931,0.1937,0.1938,0.194,0.1958,0.1949,0.195,0.1962,0.1958,0.1959,0.1982,0.2004,0.1961,0.1961,0.2015,0.2017,0.2019,0.2074,0,0,0,0,0,0,0.1925,0.1924,0.193,0.193,0.1931,0.1939,0.1938,0.194,0.1953,0.1955,0.1963,0.1963,0.1958,0.1982,0.1983,0.2004,0.1961,0.2013,0.2016,0.2018,0.207,0.2077,0.2083,0,0,0,0,0,0.1925,0.1925,0.1931,0.193,0.1936,0.1939,0.1942,0.1947,0.1954,0.1964,0.198,0.1964,0.1998,0.1984,0.1984,0.2006,0.2012,0.2015,0.2018,0.2067,0.2076,0.2083,0,0,0,0,0,0,0.192,0.1926,0.1933,0.1932,0.1939,0.1941,0.195,0.1955,0.1977,0.1987,0.1981,0.1983,0.2022,0.2003,0.1987,0.2031,0.2002,0.2005,0.2039,0.2047,0.2054,0.2076,0.1962,0,0,0,0,0,0.1924,0.1937,0.1936,0.194,0.1944,0.1953,0.1958,0.1966,0.1978,0.1988,0.1994,0.2007,0.2033,0.2031,0.2051,0.2063,0.2065,0.2077,0.2084,0.2089,0.2109,0.2159,0.2173,0.2029,0.2029,0.2029,0,0,0.1924,0.1928,0.1935,0.1942,0.1951,0.196,0.1958,0.1972,0.1985,0.1984,0.2013,0.2041,0.2047,0.2079,0.209,0.2062,0.2123,0.2093,0.2098,0.2115,0.2164,0.2178,0.2191,0.2031,0.2031,0.203,0,0,0.1925,0.1935,0.1946,0.1956,0.197,0.1976,0.1982,0.1996,0.201,0.2039,0.2057,0.2093,0.211,0.2124,0.2132,0.2182,0.2174,0.219,0.2222,0.227,0.2283,0.2294,0.2279,0.2288,0.2172,0.2173,0.2173,0,0.193,0.1934,0.1949,0.196,0.1966,0.1984,0.1993,0.201,0.2033,0.2057,0.2054,0.2138,0.2131,0.2187,0.2208,0.2196,0.2215,0.2189,0.228,0.2291,0.2302,0.2284,0.2294,0.2176,0.2175,0.2175,0.2175,0,0.1931,0.1943,0.195,0.1974,0.1986,0.1998,0.2016,0.2044,0.2067,0.2093,0.2168,0.2187,0.2234,0.2238,0.2238,0.2315,0.2299,0.2299,0.2261,0.232,0.2296,0.2305,0.218,0.2179,0.2178,0.2177,0,0,0.1923,0.1948,0.1952,0.1969,0.1995,0.2007,0.2038,0.2076,0.2108,0.2161,0.2218,0.2273,0.2312,0.2326,0.2338,0.2374,0.2437,0.2375,0.2376,0.236,0.2523,0.2396,0.2393,0.2476,0.2479,0.2481,0.2462,0,0.1923,0.1943,0.1954,0.1982,0.1994,0.2025,0.205,0.2097,0.2135,0.2197,0.2261,0.2331,0.2334,0.2376,0.2418,0.2445,0.2473,0.2441,0.2468,0.2467,0.235,0.2404,0.2203,0.2162,0.2471,0.2472,0.2473,0,0.1911,0.1933,0.1951,0.1993,0.2002,0.2028,0.2085,0.2108,0.2196,0.2237,0.2331,0.2392,0.2471,0.2469,0.2544,0.2535,0.2545,0.2554,0.2554,0.243,0.236,0.2161,0.2167,0.2489,0.2487,0.2486,0.2485,0,0.1892,0.1927,0.1944,0.1957,0.2006,0.2037,0.2069,0.2135,0.2173,0.2284,0.2349,0.2446,0.2501,0.2565,0.2591,0.2587,0.2663,0.2639,0.2529,0.2516,0.2346,0.2314,0.2712,0.2712,0.2712,0.2712,0.2712,0,0.1872,0.1898,0.1946,0.1961,0.1996,0.2037,0.208,0.213,0.2221,0.2274,0.2384,0.2453,0.2544,0.2602,0.262,0.2592,0.2679,0.2549,0.2522,0.2351,0.2322,0.2614,0.2603,0.2711,0.2711,0.2711,0.2711,0,0.1849,0.1875,0.191,0.197,0.1984,0.202,0.2088,0.2129,0.2217,0.2295,0.2353,0.2477,0.2513,0.2572,0.2629,0.2591,0.2598,0.2574,0.2334,0.228,0.2401,0.2393,0.2422,0.2418,0.2415,0.2412,0.2409,0,0.1839,0.1842,0.1904,0.1916,0.1948,0.1994,0.2023,0.2119,0.2161,0.2293,0.234,0.2429,0.2434,0.2454,0.242,0.2391,0.2506,0.2195,0.2143,0.241,0.2381,0.2379,0.2376,0.192,0.1913,0.1908,0.1904,0,0.1817,0.184,0.1871,0.1881,0.1921,0.1942,0.1997,0.2031,0.2129,0.2183,0.2232,0.2254,0.2265,0.2125,0.2103,0.2079,0.2176,0.2083,0.2463,0.202,0.1934,0.1906,0.1921,0.1858,0.1863,0.1866,0.1869,0.187,0.1812,0.1812,0.1829,0.1835,0.1871,0.187,0.1852,0.1895,0.1916,0.1945,0.2037,0.198,0.1982,0.1809,0.1749,0.1712,0.1859,0.1783,0.1801,0.1824,0.1765,0.1678,0.1539,0.1542,0.1544,0.1546,0.1548,0,0.1766,0.1762,0.1764,0.1774,0.1765,0.1803,0.181,0.1754,0.1703,0.1741,0.1721,0.1545,0.1426,0.1454,0.1302,0.1279,0.1296,0.1237,0.125,0.1295,0.1335,0.1255,0.0891,0.089,0.0888,0.0886,0,0,0.1754,0.1724,0.1703,0.1652,0.165,0.16,0.1569,0.1492,0.1465,0.1361,0.1309,0.1379,0.1403,0.114,0.1088,0.0963,0.1134,0.0925,0.1449,0.151,0.1549,0.1642,0.1566,0,0,0,0,0]},{"header":{"parameterUnit":"m.s-1","parameterCategory":2,"la1":30.2991,"la2":30.254,"lo1":-89.0895,"lo2":-89.0444,"dy":0.0017,"dx":0.0017,"nx":28,"ny":28,"refTime":"2025-09-04T03:00:00:Z","depth":"2","parameterNumber":3,"parameterNumberName":"V-component_of_CURRENTS"},"data":[0,0,0,0,0,0,0,0,0,0,0,0,0,0,0,0,0,0,0,0,0,0,0,0,0,0,0,0,0,0,0,0,0,0,0,0,0,0,0,0,0,0,0,0,0,0,0,0,0,0,0,0,0,0,0,0,0,0,0.0099,0.0099,0,0.0088,0.0088,0.0088,0.0075,0.0075,0.0075,0.0075,0.0051,0.0051,0.005,0,0,0,0,0,0,0,0,0,0,0,0,0,0.0081,0.0082,0.0099,0.0099,0.0099,0.0088,0.0088,0.0088,0.0075,0.0075,0.0075,0.0075,0.0051,0.0051,0.005,0,0,0,0,0,0,0,0,0,0,0,0,0,0.008,0.0082,0.0099,0.0092,0.0092,0.0088,0.0088,0.0088,0.0075,0.0075,0.0075,0.0075,0.0052,0.0051,0.005,0.0047,0,0,0.0048,0.0047,0,0,0,0,0,0,0,0,0.008,0.0081,0.0094,0.0093,0.0092,0.0084,0.0073,0.0074,0.0075,0.008,0.0075,0.0074,0.0062,0.006,0.0057,0.0046,0.0045,0.0047,0.0047,0.0047,0.0046,0,0,0,0,0,0,0,0.0081,0.0081,0.0094,0.0094,0.0093,0.008,0.008,0.0073,0.0071,0.008,0.0079,0.008,0.0061,0.0058,0.0056,0.0045,0.0047,0.0047,0.0046,0.0046,0.0033,0.0033,0,0,0,0,0,0,0.0086,0.0081,0.0094,0.0093,0.0087,0.0081,0.0081,0.0086,0.0071,0.0069,0.008,0.0079,0.0059,0.0057,0.0055,0.0064,0.0047,0.0046,0.0045,0.0032,0.0033,0.0033,0,0,0,0,0,0,0.0086,0.0088,0.0095,0.0088,0.0088,0.0082,0.0087,0.0086,0.0084,0.0071,0.0069,0.0081,0.0059,0.0056,0.005,0.0062,0.0045,0.0045,0.0032,0.0032,0.0033,0.0072,0,0,0,0,0,0,0.0086,0.0088,0.0091,0.0088,0.0089,0.01,0.0087,0.0085,0.0085,0.0084,0.0071,0.0069,0.0059,0.0052,0.005,0.0061,0.0044,0.0032,0.0032,0.0033,0.0071,0.0074,0.0076,0,0,0,0,0,0.0085,0.0097,0.0091,0.0093,0.0095,0.01,0.0099,0.0093,0.0086,0.009,0.0077,0.0069,0.0052,0.0051,0.0049,0.006,0.0032,0.0032,0.0033,0.007,0.0073,0.0076,0,0,0,0,0,0,0.0091,0.0096,0.0091,0.0103,0.0103,0.0099,0.0102,0.0096,0.0089,0.0086,0.0071,0.0068,0.0066,0.0055,0.0055,0.0055,0.0041,0.0041,0.007,0.0073,0.0076,0.01,0.0043,0,0,0,0,0,0.0094,0.0103,0.0103,0.0112,0.0113,0.0106,0.0107,0.0103,0.0097,0.0094,0.0085,0.0073,0.0065,0.0063,0.0052,0.0055,0.0051,0.0059,0.0062,0.0065,0.0082,0.0085,0.009,0.0034,0.0034,0.0034,0,0,0.0098,0.0102,0.0107,0.0114,0.0111,0.0123,0.0106,0.0111,0.0121,0.0092,0.01,0.0081,0.0066,0.0067,0.0065,0.0061,0.0075,0.0065,0.0068,0.0083,0.0086,0.0091,0.0096,0.0034,0.0034,0.0034,0,0,0.0118,0.0116,0.0131,0.0134,0.0136,0.0134,0.0138,0.0135,0.0134,0.0135,0.0116,0.0111,0.0096,0.0094,0.0089,0.0102,0.0087,0.009,0.013,0.0132,0.0137,0.0142,0.0133,0.0137,0.0096,0.0096,0.0096,0,0.0122,0.0144,0.0136,0.0151,0.016,0.0143,0.0163,0.016,0.0155,0.016,0.0144,0.0134,0.0116,0.0129,0.0128,0.0112,0.0103,0.0119,0.0137,0.0142,0.0146,0.0136,0.014,0.0098,0.0097,0.0097,0.0097,0,0.0156,0.017,0.0179,0.0195,0.0202,0.0216,0.0213,0.0216,0.0209,0.0206,0.0212,0.0189,0.0189,0.0176,0.0154,0.0173,0.0153,0.0138,0.0133,0.0154,0.0142,0.0145,0.01,0.01,0.0099,0.0099,0,0,0.0178,0.02,0.0203,0.0221,0.0228,0.0241,0.0255,0.027,0.029,0.0274,0.0305,0.0278,0.0265,0.0258,0.0233,0.0232,0.0239,0.0198,0.0197,0.0197,0.0235,0.022,0.0221,0.0223,0.0224,0.0225,0.0212,0,0.0208,0.0249,0.0251,0.0291,0.0314,0.0306,0.0328,0.0335,0.0334,0.0356,0.0336,0.0348,0.0296,0.0301,0.029,0.0255,0.025,0.0244,0.0209,0.0208,0.0198,0.0225,0.0238,0.0227,0.0215,0.0215,0.0216,0,0.0244,0.027,0.0314,0.035,0.036,0.0377,0.0413,0.0431,0.0446,0.0447,0.0451,0.0434,0.0432,0.0387,0.0347,0.0342,0.0296,0.0264,0.0262,0.0242,0.0199,0.0205,0.0233,0.022,0.022,0.0219,0.0219,0,0.0274,0.0315,0.0354,0.0365,0.04,0.0419,0.044,0.0459,0.0492,0.0513,0.0541,0.052,0.0526,0.0471,0.0392,0.0372,0.0348,0.0312,0.0257,0.0254,0.0257,0.0254,0.0295,0.0295,0.0295,0.0295,0.0295,0,0.031,0.0342,0.037,0.0391,0.0449,0.0457,0.0517,0.0531,0.0571,0.0626,0.0595,0.0633,0.0548,0.0518,0.0432,0.0358,0.0378,0.0278,0.0259,0.0269,0.0267,0.0255,0.025,0.0295,0.0295,0.0295,0.0295,0,0.0338,0.0353,0.0404,0.0446,0.0464,0.0506,0.0572,0.0618,0.0644,0.072,0.0736,0.0725,0.0684,0.0592,0.0507,0.0419,0.0344,0.0311,0.0322,0.0304,0.0235,0.0232,0.0252,0.0252,0.0252,0.0251,0.0251,0,0.0356,0.0383,0.0445,0.0481,0.0501,0.0563,0.0612,0.0653,0.0708,0.0779,0.0824,0.0809,0.0801,0.0667,0.0527,0.0392,0.0358,0.0301,0.0267,0.0256,0.0235,0.0233,0.0231,0.0279,0.0279,0.0278,0.0278,0,0.0394,0.0412,0.0455,0.0527,0.0581,0.0655,0.0725,0.0779,0.0842,0.0896,0.0956,0.0956,0.0845,0.0713,0.0529,0.043,0.0322,0.0295,0.0302,0.0285,0.0279,0.0259,0.0256,0.0278,0.0278,0.0278,0.0278,0.0278,0.0423,0.0458,0.0509,0.0579,0.0647,0.0734,0.0795,0.0869,0.0956,0.103,0.1034,0.1021,0.0891,0.0649,0.0497,0.0328,0.0336,0.0254,0.0255,0.0256,0.026,0.0253,0.0247,0.0247,0.0247,0.0247,0.0247,0,0.0456,0.0493,0.0557,0.064,0.0715,0.0748,0.0862,0.0916,0.1008,0.1063,0.1094,0.0952,0.082,0.0657,0.0422,0.0281,0.0264,0.0216,0.023,0.0232,0.0234,0.0236,0.0217,0.0217,0.0216,0.0215,0,0,0.0474,0.053,0.0559,0.0676,0.0738,0.0836,0.09,0.0975,0.1028,0.1061,0.1047,0.1035,0.0861,0.0675,0.0497,0.0358,0.0318,0.0319,0.0361,0.0403,0.0405,0.0278,0.0286,0,0,0,0,0]}],[{"header":{"parameterUnit":"m.s-1","parameterCategory":2,"la1":30.2991,"la2":30.254,"lo1":-89.0895,"lo2":-89.0444,"dy":0.0017,"dx":0.0017,"nx":28,"ny":28,"refTime":"2025-09-04T03:00:00:Z","depth":"4","parameterNumber":2,"parameterNumberName":"U-component_of_CURRENTS"},"data":[0,0,0,0,0,0,0,0,0,0,0,0,0,0,0,0,0,0,0,0,0,0,0,0,0,0,0,0,0,0,0,0,0,0,0,0,0,0,0,0,0,0,0,0,0,0,0,0,0,0,0,0,0,0,0,0,0,0,0.098,0.098,0,0.0996,0.0996,0.0997,0.1012,0.1013,0.1013,0.1013,0.105,0.1051,0.1051,0,0,0,0,0,0,0,0,0,0,0,0,0,0.0979,0.0978,0.098,0.098,0.0981,0.0996,0.0996,0.0997,0.1012,0.1013,0.1013,0.1014,0.105,0.1051,0.1052,0,0,0,0,0,0,0,0,0,0,0,0,0,0.0984,0.0978,0.098,0.0992,0.0993,0.0996,0.0996,0.0997,0.1012,0.1013,0.1013,0.1014,0.105,0.1051,0.1052,0.1046,0,0,0.1054,0.1055,0,0,0,0,0,0,0,0,0.0983,0.0983,0.099,0.0991,0.0993,0.1005,0.101,0.1015,0.1012,0.1003,0.1013,0.1014,0.1038,0.104,0.1038,0.1048,0.1049,0.1055,0.1055,0.1056,0.1056,0,0,0,0,0,0,0,0.0983,0.0983,0.0984,0.099,0.0992,0.1003,0.1003,0.1011,0.1016,0.1004,0.1005,0.101,0.1039,0.1037,0.1039,0.105,0.1055,0.1055,0.1056,0.1056,0.1115,0.1116,0,0,0,0,0,0,0.0983,0.0982,0.0984,0.0985,0.0992,0.1002,0.1003,0.0999,0.1015,0.1019,0.101,0.1011,0.1036,0.1038,0.1041,0.1083,0.1056,0.1056,0.1057,0.1114,0.1115,0.1116,0,0,0,0,0,0,0.0983,0.0983,0.0983,0.0986,0.0988,0.1002,0.0996,0.0999,0.1022,0.102,0.1024,0.1034,0.1036,0.104,0.1059,0.1082,0.1057,0.1058,0.1113,0.1115,0.1116,0.1136,0,0,0,0,0,0,0.0983,0.0982,0.0994,0.0986,0.0987,0.0994,0.0996,0.0999,0.1024,0.1026,0.1042,0.1044,0.1037,0.1057,0.106,0.1083,0.1058,0.1112,0.1114,0.1115,0.1134,0.1138,0.1141,0,0,0,0,0,0.0983,0.0986,0.0994,0.0995,0.0997,0.0994,0.0996,0.1007,0.1025,0.1031,0.1043,0.1045,0.1072,0.1058,0.1061,0.1086,0.1111,0.1113,0.1115,0.1132,0.1137,0.1141,0,0,0,0,0,0,0.0993,0.0988,0.0996,0.1,0.1004,0.0998,0.1014,0.1022,0.1037,0.1051,0.105,0.1053,0.1073,0.1081,0.1067,0.111,0.1095,0.1098,0.1107,0.1112,0.1115,0.1131,0.1059,0,0,0,0,0,0.1,0.1002,0.1,0.1006,0.1014,0.1021,0.103,0.1036,0.1043,0.1052,0.1062,0.1077,0.108,0.1098,0.1097,0.1126,0.114,0.1147,0.115,0.1153,0.1169,0.1203,0.1211,0.1124,0.1124,0.1124,0,0,0.1005,0.1006,0.1007,0.101,0.1019,0.1025,0.1028,0.1046,0.1056,0.1054,0.1082,0.1083,0.1087,0.1105,0.1119,0.1122,0.1185,0.1156,0.1159,0.1173,0.1206,0.1215,0.1222,0.1125,0.1125,0.1125,0,0,0.1008,0.102,0.1023,0.1027,0.1045,0.1048,0.106,0.1069,0.1084,0.1106,0.1101,0.1125,0.1141,0.1145,0.115,0.118,0.1191,0.1185,0.1232,0.1264,0.1271,0.1278,0.1303,0.1312,0.1202,0.1202,0.1202,0,0.1025,0.1017,0.1025,0.103,0.1039,0.1061,0.1068,0.1082,0.1098,0.1113,0.1123,0.1157,0.1161,0.1184,0.1195,0.119,0.1207,0.121,0.1268,0.1275,0.1282,0.1306,0.1316,0.1203,0.1203,0.1203,0.1203,0,0.1016,0.1025,0.1031,0.1042,0.1053,0.1064,0.1081,0.1103,0.1134,0.1149,0.1188,0.12,0.1227,0.1231,0.1225,0.1273,0.1268,0.1254,0.1255,0.1292,0.1315,0.1325,0.1205,0.1204,0.1204,0.1204,0,0,0.1018,0.1024,0.103,0.1035,0.1061,0.1064,0.1094,0.1118,0.1148,0.1186,0.1225,0.1249,0.1278,0.1287,0.129,0.1328,0.1385,0.1323,0.1324,0.1346,0.1458,0.1347,0.1347,0.1382,0.1383,0.1385,0.1454,0,0.1017,0.1019,0.1026,0.1039,0.1043,0.107,0.1094,0.1125,0.1164,0.1207,0.125,0.1287,0.1293,0.1319,0.1359,0.1376,0.1413,0.1368,0.1423,0.1425,0.1319,0.1355,0.1391,0.1461,0.1463,0.1465,0.1466,0,0.1003,0.1008,0.1016,0.1034,0.1042,0.106,0.1106,0.1136,0.1199,0.1233,0.1295,0.1323,0.1393,0.1388,0.1472,0.1445,0.1461,0.1475,0.1477,0.1377,0.1332,0.1419,0.1483,0.1482,0.1481,0.1479,0.1478,0,0.0982,0.0999,0.1004,0.1009,0.1039,0.1059,0.1093,0.1151,0.1185,0.1267,0.1307,0.1381,0.1437,0.1481,0.1521,0.1507,0.1599,0.1576,0.1491,0.1483,0.1554,0.1546,0.1629,0.1629,0.1629,0.1628,0.1628,0,0.0957,0.0966,0.0999,0.0999,0.1029,0.1061,0.1106,0.1151,0.1221,0.1264,0.1337,0.1376,0.1466,0.152,0.1544,0.1552,0.1624,0.1509,0.1497,0.1559,0.1551,0.156,0.1551,0.1631,0.163,0.163,0.1629,0,0.0924,0.0943,0.0955,0.0996,0.1017,0.1047,0.1114,0.114,0.1224,0.1284,0.1316,0.1401,0.147,0.1534,0.1605,0.1571,0.1589,0.1566,0.1639,0.1627,0.1449,0.144,0.1487,0.1484,0.1481,0.1479,0.1477,0,0.0901,0.0902,0.0955,0.0967,0.0989,0.1036,0.1063,0.1142,0.1171,0.128,0.13,0.139,0.1436,0.1461,0.1527,0.1567,0.1543,0.1542,0.1488,0.1453,0.1437,0.1432,0.1428,0.1472,0.1472,0.1471,0.147,0,0.0866,0.0895,0.0909,0.0936,0.0964,0.098,0.1031,0.1046,0.1133,0.122,0.1251,0.128,0.1346,0.1394,0.1434,0.1454,0.154,0.1513,0.1518,0.1468,0.1436,0.1421,0.142,0.1461,0.1462,0.1463,0.1464,0,0.0854,0.0854,0.0878,0.0892,0.0926,0.0913,0.0941,0.0966,0.101,0.1134,0.1139,0.1235,0.1324,0.1335,0.137,0.1386,0.1364,0.1317,0.1332,0.1344,0.1263,0.1199,0.1151,0,0,0,0,0,0.0834,0.0818,0.0824,0.0827,0.0853,0.0868,0.0911,0.0936,0.103,0.1025,0.1079,0.113,0.1173,0.122,0.121,0.1308,0.137,0.1289,0.1323,0.1407,0.1418,0.1336,0,0,0,0,0,0,0.0814,0.0825,0.0806,0.0774,0.0763,0.0773,0.0795,0.0844,0.0847,0.0952,0.0986,0.1066,0.1132,0.118,0.1194,0.121,0.1207,0.1356,0.1353,0.1401,0.1411,0.142,0.1339,0,0,0,0,0]},{"header":{"parameterUnit":"m.s-1","parameterCategory":2,"la1":30.2991,"la2":30.254,"lo1":-89.0895,"lo2":-89.0444,"dy":0.0017,"dx":0.0017,"nx":28,"ny":28,"refTime":"2025-09-04T03:00:00:Z","depth":"4","parameterNumber":3,"parameterNumberName":"V-component_of_CURRENTS"},"data":[0,0,0,0,0,0,0,0,0,0,0,0,0,0,0,0,0,0,0,0,0,0,0,0,0,0,0,0,0,0,0,0,0,0,0,0,0,0,0,0,0,0,0,0,0,0,0,0,0,0,0,0,0,0,0,0,0,0,0.012,0.012,0,0.0122,0.0122,0.0123,0.0117,0.0117,0.0117,0.0117,0.0101,0.0101,0.01,0,0,0,0,0,0,0,0,0,0,0,0,0,0.0097,0.0098,0.012,0.012,0.012,0.0122,0.0122,0.0123,0.0117,0.0117,0.0117,0.0117,0.0101,0.0101,0.01,0,0,0,0,0,0,0,0,0,0,0,0,0,0.0104,0.0098,0.012,0.0118,0.0117,0.0122,0.0122,0.0123,0.0117,0.0117,0.0117,0.0117,0.0101,0.0101,0.01,0.0104,0,0,0.0099,0.0099,0,0,0,0,0,0,0,0,0.0104,0.0105,0.0118,0.0118,0.0117,0.0119,0.0109,0.0115,0.0118,0.0118,0.0117,0.0116,0.0105,0.0105,0.0106,0.0103,0.0102,0.0099,0.0099,0.0099,0.0099,0,0,0,0,0,0,0,0.0103,0.0105,0.0121,0.0118,0.0118,0.0112,0.0113,0.011,0.0113,0.0118,0.0117,0.0117,0.0105,0.0107,0.0106,0.0102,0.0099,0.0099,0.0099,0.0099,0.0108,0.0109,0,0,0,0,0,0,0.0104,0.0105,0.0121,0.0121,0.011,0.0112,0.0113,0.0119,0.0113,0.0112,0.0117,0.0117,0.0107,0.0106,0.0105,0.0122,0.0099,0.0099,0.0098,0.0108,0.0108,0.0109,0,0,0,0,0,0,0.0104,0.0106,0.0121,0.0112,0.0114,0.0113,0.012,0.0119,0.0122,0.0113,0.0112,0.0121,0.0107,0.0106,0.0109,0.0121,0.0098,0.0098,0.0107,0.0108,0.0108,0.0148,0,0,0,0,0,0,0.0103,0.0106,0.011,0.0113,0.0114,0.0127,0.012,0.0119,0.0122,0.0122,0.0116,0.0114,0.0107,0.011,0.0109,0.012,0.0098,0.0106,0.0107,0.0108,0.0146,0.015,0.0153,0,0,0,0,0,0.0102,0.0113,0.0111,0.0113,0.0121,0.0128,0.0128,0.0127,0.0123,0.0128,0.0125,0.0114,0.0115,0.011,0.0109,0.012,0.0106,0.0107,0.0108,0.0144,0.0149,0.0153,0,0,0,0,0,0,0.0106,0.0114,0.0111,0.0124,0.0126,0.0127,0.0132,0.0129,0.0132,0.0131,0.0121,0.012,0.0129,0.0118,0.0113,0.0125,0.0108,0.0109,0.0136,0.014,0.0144,0.0146,0.0097,0,0,0,0,0,0.0109,0.0119,0.0122,0.0131,0.0133,0.0132,0.0135,0.0134,0.0135,0.0136,0.0131,0.0128,0.0132,0.0131,0.0131,0.0136,0.0119,0.0141,0.0145,0.0148,0.0149,0.0134,0.0136,0.0112,0.0112,0.0112,0,0,0.0114,0.0118,0.0124,0.0132,0.0134,0.0147,0.0134,0.014,0.0152,0.0133,0.0148,0.0142,0.0137,0.0148,0.015,0.0139,0.0147,0.0149,0.0152,0.0151,0.0135,0.0137,0.0139,0.0113,0.0113,0.0113,0,0,0.0129,0.0131,0.0145,0.015,0.0155,0.0157,0.016,0.0162,0.0164,0.0176,0.0168,0.017,0.0172,0.0173,0.0173,0.0195,0.0169,0.0192,0.021,0.0195,0.0197,0.0199,0.0184,0.0184,0.0191,0.0191,0.0191,0,0.0132,0.0153,0.0149,0.0164,0.0174,0.0164,0.0183,0.0186,0.0189,0.0195,0.0185,0.0193,0.0187,0.0203,0.0209,0.0205,0.0187,0.0195,0.02,0.0201,0.0202,0.0187,0.0186,0.0193,0.0193,0.0192,0.0192,0,0.0159,0.0175,0.0184,0.0203,0.0211,0.0226,0.023,0.0237,0.0237,0.0237,0.0249,0.0239,0.0242,0.0241,0.0232,0.0237,0.0221,0.0209,0.0189,0.0206,0.0189,0.0188,0.0196,0.0195,0.0194,0.0194,0,0,0.0171,0.0199,0.0203,0.0221,0.0236,0.0248,0.0268,0.0285,0.0302,0.0294,0.0312,0.0312,0.0295,0.0294,0.028,0.0264,0.0255,0.0236,0.0234,0.0223,0.0218,0.0213,0.021,0.0239,0.0239,0.0239,0.0206,0,0.0195,0.0232,0.0241,0.0281,0.0302,0.0306,0.0329,0.0339,0.0343,0.0354,0.0338,0.0348,0.0319,0.0321,0.03,0.0269,0.0252,0.0265,0.0203,0.0201,0.0194,0.0208,0.0238,0.0205,0.0204,0.0204,0.0204,0,0.0222,0.0246,0.0287,0.0327,0.0337,0.036,0.0394,0.0414,0.0422,0.0423,0.0418,0.0399,0.0384,0.0354,0.0302,0.0309,0.0266,0.0235,0.0233,0.0212,0.0192,0.0182,0.02,0.0201,0.0201,0.0201,0.0201,0,0.0236,0.0281,0.0317,0.0331,0.037,0.0394,0.0418,0.0436,0.046,0.0466,0.0475,0.0446,0.0439,0.0381,0.0314,0.0305,0.025,0.0232,0.0188,0.0187,0.0183,0.0182,0.0193,0.0193,0.0193,0.0193,0.0193,0,0.0261,0.0292,0.0329,0.035,0.0401,0.0419,0.0468,0.0486,0.0511,0.054,0.051,0.0515,0.0443,0.04,0.0329,0.0257,0.0262,0.0194,0.0179,0.0201,0.0203,0.0182,0.0182,0.0192,0.0192,0.0193,0.0193,0,0.0273,0.0294,0.0341,0.0389,0.0409,0.0447,0.0507,0.054,0.0558,0.0594,0.0597,0.057,0.0516,0.044,0.0351,0.0287,0.0213,0.0185,0.022,0.0208,0.0154,0.0156,0.0132,0.0132,0.0132,0.0131,0.0131,0,0.0281,0.0305,0.0367,0.0398,0.0424,0.048,0.0522,0.0563,0.0598,0.0623,0.0641,0.0604,0.0572,0.0446,0.036,0.0237,0.0213,0.017,0.0154,0.016,0.0148,0.0151,0.0153,0.013,0.013,0.013,0.013,0,0.0298,0.0318,0.0357,0.0419,0.0469,0.0529,0.0589,0.0616,0.0661,0.0676,0.0671,0.0608,0.0551,0.0448,0.0359,0.0266,0.0194,0.0165,0.0165,0.0149,0.0157,0.0147,0.0149,0.0129,0.0129,0.0129,0.0129,0,0.0309,0.0335,0.0381,0.0439,0.0502,0.0562,0.0593,0.0634,0.067,0.0695,0.0689,0.0625,0.0591,0.0463,0.0378,0.0292,0.026,0.0212,0.0209,0.0209,0.0237,0.0259,0.0253,0,0,0,0,0,0.0319,0.0347,0.0397,0.0461,0.0525,0.0563,0.0633,0.0658,0.0696,0.0696,0.0695,0.0639,0.0517,0.0467,0.038,0.0363,0.0243,0.0256,0.0186,0.0122,0.0123,0.0142,0,0,0,0,0,0,0.0324,0.0369,0.0394,0.0471,0.0514,0.0589,0.0634,0.066,0.0661,0.0678,0.0619,0.0597,0.0485,0.0565,0.0371,0.0348,0.0285,0.0207,0.0204,0.0121,0.0122,0.0123,0.0143,0,0,0,0,0]}]]